www.pogodaiklimat.ru

Погода и климат >> Архив погоды >> Россия >> Якутия >> Столб Остров


ПОГОДА на Столб Острове

  • Прогноз погоды на Столб Острове
  • Монитор погоды на Столб Острове

АРХИВ ПОГОДЫ на Столб Острове

Время (UTC), дата Ветер
(напр.,м/с)
 
Видим.   Явления Облачность Т
(С)
Тd
(С)
f
(%)
Тe
(С)
Тes
(С)
Комфортность P
(гПа)
Po
(гПа)
Тmin
(С)
Tmax
(С)
R
(мм)
R24
(мм)
S
(см)
03 14.05 СЗ 5 10 км слаб. снег 10/10 600 м
[Sc]
-8.5 -10.0 89 -16 -16 1026.1 1023.5
06 14.05 СЗ 2 10 км слаб. снег 10/10 600 м
[Sc]
-8.5 -12.3 74 -13 -13 1025.3 1022.7
09 14.05 СЗ 3 10 км слаб. снег 10/10 600 м
[Sc]
-8.7 -11.1 83 -15 -15 1025.0 1022.4
12 14.05 С 1 20 км {снег} 10/10 600 м
[Sc]
-8.6 -10.5 86 -11 -11 1024.5 1021.9 -8.1 0.7
15 14.05 С 3 20 км 10/10 600 м
[Sc]
-8.4 -9.9 89 -14 -14 1024.0 1021.4
21 14.05 С 2 20 км 10/10 600 м
[Sc]
-8.1 -9.9 87 -13 -13 1022.9 1020.3
00 15.05 С 4 20 км 10/10 600 м
[Sc]
-7.9 -8.9 93 -15 -15 1022.6 1020.0 -8.8 17
06 15.05 В 5 20 км 10/10 600 м
[Sc]
-6.4 -9.6 78 -14 -14 1021.8 1019.2
09 15.05 СВ 4 20 км 10/10 600 м
[Sc]
-7.0 -10.3 77 -14 -14 1021.8 1019.2
12 15.05 СВ 5 20 км 10/10 600 м
[Sc]
-7.6 -11.1 76 -15 -15 1022.4 1019.8 -6.1
15 15.05 СВ 2 10 км слаб. снег 10/10 600 м
[Sc]
-8.2 -11.4 78 -13 -13 1022.8 1020.2
18 15.05 СВ 1 10 км слаб. снег 10/10 600 м
[Sc]
-8.6 -11.4 80 -11 -11 1022.7 1020.1
00 16.05 СВ 2 10 км слаб. снег 10/10 600 м
[Sc]
-8.6 -12.9 71 -13 -13 1023.9 1021.3 -8.6 0.8 17
03 16.05 СВ 4 50 км {снег} 10/10 600 м
[Sc]
-8.0 -12.1 72 -15 -15 1024.3 1021.7
06 16.05 СВ 3 10 км слаб. снег 10/10 600 м
[Sc]
-7.6 -13.6 62 -13 -13 1024.2 1021.6
09 16.05 С 3 50 км {снег} 10/10 600 м
[Sc]
-6.7 -12.3 64 -12 -12 1025.3 1022.7
12 16.05 С 2 10 км слаб. снег 10/10 600 м
[Sc]
-8.3 -11.1 80 -13 -13 1025.1 1022.5 -6.7 0.6
15 16.05 СВ 2 20 км в посл. час снег 10/10 600 м
[Sc]
-7.7 -10.3 82 -12 -12 1025.4 1022.8
18 16.05 С 3 20 км снежные кристаллы 10/10 600 м
[Sc]
-9.0 -11.9 79 -15 -15 1025.4 1022.8
21 16.05 штиль 0 10 км слаб. снег 10/10 600 м
[Sc]
-8.1 -10.8 81 -9 -9 1025.3 1022.7
00 17.05 З 2 10 км слаб. снег 10/10 600 м
[Sc]
-7.8 -10.9 78 -12 -12 1026.0 1023.4 -9.0 0.5 17
03 17.05 С 5 20 км в посл. час снег 10/10 600 м
[Sc]
-7.6 -11.1 76 -15 -15 1026.0 1023.4
06 17.05 С 6 20 км {снег} 10/10 600 м
[Sc]
-7.0 -10.8 74 -15 -15 1026.3 1023.7
09 17.05 СЗ 6 20 км 10/10 600 м
[Sc]
-7.6 -11.6 73 -16 -16 1027.5 1024.9
12 17.05 СЗ 6 10 км слаб. ливневой снег 10/10 300 м
[Cb cap]
-7.4 -11.3 74 -15 -15 1028.0 1025.4 -5.6 0.2
15 17.05 СЗ 4 20 км {ливн. осадки} 10/10 600 м
[Cb cap]
-8.0 -9.8 87 -15 -15 1028.3 1025.7
18 17.05 С 4 10 км слаб. ливневой снег 10/10 600 м
[Cb cap]
-8.7 -10.5 87 -16 -16 1029.1 1026.5
21 17.05 СЗ 5 10 км слаб. ливневой снег 10/10 600 м
[Cb cap]
-9.2 -11.2 85 -17 -17 1028.6 1026.0
00 18.05 СЗ 5 20 км {ливн. осадки} 10/10 600 м
[Sc]
-8.4 -10.3 86 -16 -16 1029.0 1026.3 -9.6 0.6 18
03 18.05 С 4 20 км 10/10 600 м
[Sc]
-6.7 -8.7 86 -13 -13 1029.3 1026.7
06 18.05 СЗ 5 4000 м слаб. ливневой снег 10/10 600 м
[Cb cap]
-8.2 -10.5 83 -16 -16 1029.0 1026.4
09 18.05 СЗ 5 4000 м слаб. ливневой снег 10/10 600 м
[Cb cap]
-9.2 -12.7 76 -17 -17 1029.0 1026.4
12 18.05 СЗ 3 4000 м слаб. снег 10/10 600 м
[Sc]
-11.0 -13.0 85 -17 -17 1028.9 1026.3 -6.2 0.7
15 18.05 З 4 10 км слаб. снег 10/10 600 м
[Sc]
-11.8 -13.1 90 -19 -19 1028.1 1025.5
18 18.05 СЗ 3 10 км слаб. снег 10/10 600 м
[Sc]
-11.2 -12.5 90 -17 -17 1026.7 1024.1
21 18.05 СЗ 5 10 км слаб. снег 10/10 600 м
[Sc]
-11.3 -12.6 90 -19 -19 1025.7 1023.1
00 19.05 З 5 10 км слаб. снег 10/10 600 м
[Sc]
-10.4 -11.7 90 -18 -18 1024.6 1022.0 -11.8 0.9 18
03 19.05 СЗ 4 10 км слаб. снег 10/10 600 м
[Sc]
-10.9 -12.9 85 -18 -18 1023.5 1020.9
06 19.05 СЗ 5 50 км {снег} 10/10 600 м
[Sc]
-10.6 -13.4 80 -18 -18 1022.2 1019.6
09 19.05 СЗ 4 10 км слаб. снег 10/10 600 м
[Sc]
-10.9 -13.7 80 -18 -18 1021.5 1018.9
12 19.05 З 5 10 км слаб. снег 10/10 600 м
[Sc]
-11.7 -13.7 85 -20 -20 1020.4 1017.8 -10.4 0.7
15 19.05 З 6 20 км {снег} 3/3 600 м
[Sc]
-13.0 -14.3 90 -22 -22 1019.3 1016.7
18 19.05 З 4 20 км {снег} 10/10 600 м
[Sc]
-13.9 -15.9 85 -21 -21 1017.8 1015.2
21 19.05 З 5 10 км слаб. ливневой снег 10/10 300 м
[Cb cap]
-12.2 -14.2 85 -20 -20 1016.4 1013.8
00 20.05 З 6 10 км слаб. ливневой снег 10/10 300 м
[Cb cap]
-11.1 -13.1 85 -20 -20 1015.6 1013.0 -14.3 0.7 19
03 20.05 ЮЗ 5 10 км слаб. ливневой снег 10/10 300 м
[Cb cap]
-9.6 -11.7 85 -17 -17 1014.4 1011.8
06 20.05 ЮЗ 8
{10}
20 км позёмок {ливн. осадки} 10/0
[]
-8.6 -11.4 80 -18 -17 1013.6 1011.0
09 20.05 ЮЗ 8
{11}
10 км слаб. снег {метель} 10/0
[As op]
-9.1 -11.1 85 -19 -19 1013.2 1010.6
12 20.05 ЮЗ 7 10 км слаб. снег {метель} 10/0
[Ac As]
-9.3 -11.3 85 -18 -18 1012.5 1009.9 -8.4 0.3
15 20.05 ЮЗ 7
{12}
10 км слаб. снег {метель} 10/0
[Ac As]
-9.3 -11.3 85 -18 -18 1011.7 1009.1
18 20.05 ЮЗ 8-10
{11}
4000 м слаб. снег {метель} 10/10 600 м
[Sc]
-8.2 -10.1 86 -18 -18 1011.0 1008.4
21 20.05 ЮЗ 7
{13}
20 км позёмок {снег} 10/10 600 м
[Sc]
-7.6 -9.4 87 -16 -16 1010.9 1008.4
00 21.05 З 8-10
{12}
4000 м слаб. снег {метель} 10/10 600 м
[Sc]
-6.0 -8.7 81 -15 -15 1011.0 1008.5 -9.3 0.8 20

 

Местоположение метеостанции Столб Остров (Якутия, Россия): широта 72.40 долгота 126.30 высота над уровнем моря 20 м.

В архиве по умолчанию представлена погода на Столб Острове за последнюю неделю. Архивные данные за месяц целиком и за предыдущие месяцы, начиная с января 2011 года, Вы можете получить, выбрав интересующий диапазон дат из раскрывающегося списка и нажав кнопку "Ввод!".


*Определитесь, кто Вы:
робот инопланетянин человек

Внимание! Время в таблицах - всемирное. Для получения местного времени необходимо прибавить поправку, которая равна 9 ч.

Смотрите также архив погоды в соседних городах и на ближайших метеорологических станциях:

Погода на Мысе Быков (Якутия, Россия) (105 км)
Погода в Тюмяти (Якутия, Россия) (109 км)
Погода в Тикси (Якутия, Россия) (128 км)
Погода в Кюсюре (Якутия, Россия) (195 км)
Погода на Усть-Оленеке (Якутия, Россия) (225 км)
Погода в Юбилейной (Якутия, Россия) (392 км)
Погода в Джарджане (Якутия, Россия) (417 км)
Погода в Саскылахе (Якутия, Россия) (421 км)
Погода в Усть-Куйге (Якутия, Россия) (426 км)
Погода в Анабаре (Якутия, Россия) (430 км)

Пояснения к столбцам:

Ветер - указаны скорость ветра в м/с - средняя за 10 мин, порывы в срок и между сроками (в фигурных скобках) и направление, откуда дует ветер: С - северный, СВ - северо-восточный, В - восточный, ЮВ - юго-восточный, Ю - южный, ЮЗ - юго-западный, З - западный, СЗ - северо-западный.
Видимость - горизонтальная дальность видимости в метрах или километрах. При видимости от 1 до 10 км при отсутствии осадков обычно наблюдается дымка, при ухудшении видимости до 1 км и менее - туман. В сухую погоду видимость может ухудшаться дымом, пылью или мглою.
Явления - указаны атмосферные явления, наблюдавшиеся в срок или в последний час перед сроком; фигурными скобками обозначены явления, наблюдавшиеся между сроками (за 1-3 часа до срока); квадратными скобками обозначены град или гололедные отложения с указанием их диаметра в мм.
Облачность - указаны через наклонную черту общая и нижняя облачность в баллах и высота нижней границы облаков в метрах; квадратными скобками обозначены формы облаков: Ci - перистые, Cs - перисто-слоистые, Cc - перисто-кучевые, Ac - высококучевые, As - высокослоистые, Sc - слоисто-кучевые, Ns - слоисто-дождевые, Cu - кучевые, Cb - кучево-дождевые. Подробнее классификацию облаков см. в Атласе облаков (PDF).
T - Температура воздуха - температура, измеренная на высоте 2 м над землей.
Td - Температура точки росы - температура, при понижении до которой содержащийся в воздухе водяной пар достигнет насыщения.
f - Относительная влажность воздуха - влажноcть воздуха, измеренная на высоте 2 м над землей.
Te - Эффективная температура - температура, которую ощущает одетый по сезону человек в тени. Характеристика душности погоды. При расчете учитывается влияние влажности воздуха и скорости ветра на теплоощущения человека.
Tes - Эффективная температура на солнце - температура, которую ощущает человек, с поправкой на солнечный нагрев. Характеристика знойности погоды. Зависит от высоты солнца над горизонтом, облачности и скорости ветра. Ночью, в пасмурную погоду, а также при ветре 12 м/с и более поправка равна нулю.
P - Атмосферное давление - приведенное к уровню моря атмосферное давление.
Po - Атмосферное давление - измеренное на уровне метеостанции атмосферное давление.
Tmin - Минимальная температура - минимум температуры воздуха на высоте 2 м над землей.
Tmax - Максимальная температура - максимум температуры воздуха на высоте 2 м над землей.
R - Количество осадков - Количество выпавших осадков за период времени, мм. При наведении курсора мыши на число - период времени, за который выпало указанное количество осадков.
R24 - Количество осадков - Количество выпавших осадков за 24 часа, мм.
S - Снежный покров - Высота снежного покрова, см. При наведении курсора мыши на число - состояние снежного покрова и степень покрытия местности в баллах.